TimeGMT,TemperatureF,Dew PointF,Humidity,Sea Level PressureIn,VisibilityMPH,Wind Direction,Wind SpeedMPH,Gust SpeedMPH,PrecipitationIn,Events,Conditions,WindDirDegrees,DateUTC
12:20 AM,48.2,42.8,82,29.53,6.2,WSW,21.9,33.4,N/A,Rain,Light Rain Showers,240,2013-12-16 00:20:00
12:50 AM,48.2,42.8,82,29.53,6.2,SW,12.7,-,N/A,,Scattered Clouds,220,2013-12-16 00:50:00
1:50 AM,48.2,41.0,76,29.50,6.2,SSW,12.7,-,N/A,,Partly Cloudy,210,2013-12-16 01:50:00
2:50 AM,48.2,41.0,76,29.53,6.2,SW,16.1,-,N/A,,Partly Cloudy,220,2013-12-16 02:50:00
3:50 AM,48.2,41.0,76,29.53,6.2,SSW,10.4,-,N/A,,Scattered Clouds,200,2013-12-16 03:50:00
4:50 AM,48.2,41.0,76,29.53,6.2,SW,12.7,-,N/A,,Scattered Clouds,220,2013-12-16 04:50:00
5:50 AM,46.4,37.4,71,29.56,6.2,SW,24.2,-,N/A,Rain,Light Rain Showers,230,2013-12-16 05:50:00
6:20 AM,44.6,37.4,76,29.53,6.2,SSW,15.0,-,N/A,,Scattered Clouds,200,2013-12-16 06:20:00
6:50 AM,44.6,35.6,71,29.56,6.2,SSW,13.8,-,N/A,,Scattered Clouds,200,2013-12-16 06:50:00
7:20 AM,46.4,37.4,71,29.56,6.2,SW,17.3,-,N/A,,Scattered Clouds,220,2013-12-16 07:20:00
7:50 AM,46.4,37.4,71,29.59,6.2,SW,21.9,-,N/A,,Scattered Clouds,230,2013-12-16 07:50:00
8:20 AM,46.4,35.6,66,29.59,6.2,WSW,26.5,-,N/A,,Mostly Cloudy,240,2013-12-16 08:20:00
8:50 AM,46.4,35.6,66,29.62,6.2,WSW,23.0,35.7,N/A,,Scattered Clouds,240,2013-12-16 08:50:00
9:20 AM,44.6,33.8,66,29.65,6.2,WSW,24.2,-,N/A,,Scattered Clouds,250,2013-12-16 09:20:00
9:50 AM,44.6,33.8,66,29.68,6.2,WSW,24.2,-,N/A,,Scattered Clouds,250,2013-12-16 09:50:00
10:20 AM,44.6,33.8,66,29.68,6.2,WSW,21.9,35.7,N/A,,Scattered Clouds,250,2013-12-16 10:20:00
10:50 AM,44.6,33.8,66,29.71,6.2,WSW,17.3,-,N/A,,Partly Cloudy,250,2013-12-16 10:50:00
11:20 AM,44.6,33.8,66,29.74,6.2,WSW,17.3,29.9,N/A,,Partly Cloudy,240,2013-12-16 11:20:00
11:50 AM,44.6,33.8,66,29.74,6.2,WSW,19.6,-,N/A,,Partly Cloudy,240,2013-12-16 11:50:00
12:20 PM,44.6,33.8,66,29.74,6.2,SW,17.3,-,N/A,,Partly Cloudy,230,2013-12-16 12:20:00
12:50 PM,46.4,33.8,62,29.77,6.2,SW,20.7,-,N/A,,Partly Cloudy,230,2013-12-16 12:50:00
1:20 PM,46.4,35.6,66,29.77,6.2,SW,17.3,-,N/A,,Scattered Clouds,220,2013-12-16 13:20:00
1:50 PM,44.6,35.6,71,29.77,6.2,SSW,15.0,-,N/A,,Scattered Clouds,210,2013-12-16 13:50:00
2:20 PM,44.6,33.8,66,29.80,6.2,WSW,19.6,-,N/A,,Scattered Clouds,240,2013-12-16 14:20:00
2:50 PM,44.6,33.8,66,29.80,6.2,SW,17.3,-,N/A,,Scattered Clouds,230,2013-12-16 14:50:00
3:20 PM,44.6,35.6,71,29.83,6.2,SW,20.7,-,N/A,,Scattered Clouds,230,2013-12-16 15:20:00
3:50 PM,44.6,35.6,71,29.83,6.2,SW,16.1,-,N/A,,Scattered Clouds,230,2013-12-16 15:50:00
4:20 PM,44.6,35.6,71,29.83,6.2,SW,15.0,-,N/A,,Scattered Clouds,230,2013-12-16 16:20:00
4:50 PM,44.6,35.6,71,29.86,6.2,WSW,15.0,26.5,N/A,,Scattered Clouds,240,2013-12-16 16:50:00
5:20 PM,44.6,35.6,71,29.86,6.2,SW,11.5,-,N/A,,Scattered Clouds,220,2013-12-16 17:20:00
5:50 PM,44.6,35.6,71,29.86,6.2,SW,11.5,-,N/A,,Mostly Cloudy,220,2013-12-16 17:50:00
6:20 PM,44.6,35.6,71,29.89,6.2,SW,17.3,29.9,N/A,,Scattered Clouds,230,2013-12-16 18:20:00
6:50 PM,44.6,37.4,76,29.89,6.2,SW,15.0,-,N/A,,Scattered Clouds,220,2013-12-16 18:50:00
7:20 PM,44.6,35.6,71,29.92,6.2,SW,12.7,-,N/A,,Scattered Clouds,220,2013-12-16 19:20:00
7:50 PM,44.6,37.4,76,29.92,6.2,SW,16.1,-,N/A,,Mostly Cloudy,230,2013-12-16 19:50:00
8:20 PM,44.6,37.4,76,29.92,6.2,SSW,12.7,-,N/A,,Mostly Cloudy,210,2013-12-16 20:20:00
8:50 PM,44.6,35.6,71,29.92,6.2,SW,16.1,27.6,N/A,,Mostly Cloudy,220,2013-12-16 20:50:00
9:20 PM,44.6,37.4,76,29.95,6.2,SW,13.8,-,N/A,,Mostly Cloudy,220,2013-12-16 21:20:00
9:50 PM,44.6,37.4,76,29.95,6.2,WSW,16.1,-,N/A,,Scattered Clouds,240,2013-12-16 21:50:00
10:20 PM,44.6,35.6,71,29.95,6.2,WSW,18.4,-,N/A,,Mostly Cloudy,250,2013-12-16 22:20:00
10:50 PM,42.8,35.6,76,29.98,6.2,West,12.7,-,N/A,,Scattered Clouds,270,2013-12-16 22:50:00
11:20 PM,42.8,35.6,76,29.98,6.2,WSW,18.4,-,N/A,Rain,Light Rain Showers,250,2013-12-16 23:20:00
11:50 PM,39.2,35.6,87,29.98,6.2,SW,5.8,-,N/A,,Scattered Clouds,230,2013-12-16 23:50:00